Regional Weather Roundup
Issued by NWS Sterling, VA

Home | Current Version | Previous Version | Text Only | Print | Product List | Glossary Off
Versions: 1 2 3 4 5 6 7 8 9 10 11 12 13 14 15 16 17 18 19 20 21 22 23 24 25 26 27 28 29 30 31 32 33 34 35 36 37 38 39 40 41 42 43 44 45 46 47 48 49 50

000
ASUS41 KLWX 232110
RWRLWX

REGIONAL WEATHER ROUNDUP
NATIONAL WEATHER SERVICE BALTIMORE MD/WASHINGTON DC
500 PM EDT SAT MAY 23 2015

Note: "FAIR" indicates few or no clouds below 12,000 feet
with no significant weather and/or obstructions to visibility.
 TC=TEMPERATURE CELSIUS

 * =Non NWS site. Station does not report precipitation (e.g. rain,
    snow, etc.), thunder, or fog.

DCZ001-MDZ009-015-VAZ040>042-051-053>054-232200-
WASHINGTON METRO

CITY           SKY/WX    TMP DP  RH WIND       PRES   REMARKS
WASHINGTON NAT SUNNY     73  41  31 S12       30.39F
DULLES         MOSUNNY   72  35  25 CALM      30.38F
ANDREWS AFB    SUNNY     72  37  27 NW3       30.38F
FT BELVOIR     SUNNY     72  38  28 S8        30.38F
QUANTICO       SUNNY     71  40  32 S7        30.40F
COLLEGE PARK*  SUNNY     72  30  21 CALM      30.38F
LEESBURG*      SUNNY     72  39  30 CALM      30.39S
MANASSAS*      SUNNY     72  37  28 CALM      30.38F
GAITHERSBURG*  SUNNY     70  36  28 CALM      30.43S

$$

MDZ006>007-011-014-232200-
BALTIMORE METRO

CITY           SKY/WX    TMP DP  RH WIND       PRES   REMARKS
BWI AIRPORT    MOSUNNY   71  34  25 VRB7      30.37F
MD SCIENCE CTR   N/A     68  39  34 MISG      30.39F
MARTIN STATE   SUNNY     68  41  37 SE8       30.41S
ANNAPOLIS      SUNNY     65  38  36 SE10      30.40S
FORT MEADE*    SUNNY     70  32  24 SW7       30.40F

$$

MDZ012-015-019>023-232200-
MARYLAND EASTERN SHORE

CITY           SKY/WX    TMP DP  RH WIND       PRES   REMARKS
OCEAN CITY     SUNNY     59  43  55 SE7       30.42F
SALISBURY      SUNNY     68  46  45 S8        30.39F
BAY BRIDGE AP*   N/A    N/A N/A N/A SE7       30.40F
CAMBRIDGE*     SUNNY     72  32  23 N3        30.40F
EASTON*        MOSUNNY   70  36  28 VRB6      30.44F

$$

MDZ017>025-232200-
SOUTHERN MARYLAND

CITY           SKY/WX    TMP DP  RH WIND       PRES   REMARKS
PATUXENT RIVER MOSUNNY   66  36  32 SE9       30.40F
ST INIGOES     SUNNY     68  34  28 CALM      30.40F
LEONARDTOWN*   SUNNY     68  34  28 S6        30.41F

$$

MDZ003>005-232200-
NORTH CENTRAL MARYLAND

CITY           SKY/WX    TMP DP  RH WIND       PRES   REMARKS
FREDERICK*     SUNNY     72  39  30 W7        30.40F
HAGERSTOWN APT SUNNY     72  29  20 SW6       30.37F
WESTMINSTER*   SUNNY     72  25  17 S5        30.38F

$$

MDZ501>502-232200-
WESTERN MARYLAND

CITY           SKY/WX    TMP DP  RH WIND       PRES   REMARKS
OAKLAND*       SUNNY     64  32  29 NW8       30.41S
CUMBERLAND*    SUNNY     77  34  20 CALM      30.37F

$$

VAZ025>031-232200-
SHENANDOAH VALLEY

CITY           SKY/WX    TMP DP  RH WIND       PRES   REMARKS
WINCHESTER*    SUNNY     73  30  20 CALM      30.36F
FRONT ROYAL*   FAIR      72  43  35 E7        30.36S
LURAY*         FAIR      77  45  31 SE6       30.36F
NEW MARKET*    FAIR      74  45  34 W5        30.34F
STAUNTON*      MOSUNNY   73  46  37 SW12      30.38F
WAYNESBORO*    MOCLDY    68  47  46 SE8G17    30.38S

$$

WVZ021-048>050-054>055-232200-
EASTERN WEST VIRGINIA PANHANDLE

CITY           SKY/WX    TMP DP  RH WIND       PRES   REMARKS
MARTINSBURG    SUNNY     71  40  32 SE8       30.37F
PETERSBURG*    SUNNY     76  37  24 CALM      30.34F

$$

VAZ036>039-050-232200-
CENTRAL FOOTHILLS

CITY           SKY/WX    TMP DP  RH WIND       PRES   REMARKS
CHARLOTTESVILL SUNNY     73  44  35 SW6       30.37F
CULPEPER*      SUNNY     71  40  32 CALM      30.39F
ORANGE*        SUNNY     73  43  33 CALM      30.39F
GORDONSVILLE*  FAIR      72  43  35 CALM      30.38S
WARRENTON*     FAIR      74  44  34 SE6       30.38F

$$

VAZ055>057-232200-
NORTH AND CENTRAL PIEDMONT

CITY           SKY/WX    TMP DP  RH WIND       PRES   REMARKS
FREDERICKSBRG* SUNNY     75  42  30 CALM      30.38F
STAFFORD*      SUNNY     73  34  24 SW3       30.43F

$$

NCZ024-NYZ072-PAZ021-071-VAZ022-071-232200-
OTHER REGIONAL OBSERVATIONS

CITY           SKY/WX    TMP DP  RH WIND       PRES   REMARKS
NEW YORK CITY  SUNNY     69  28  21 MISG      30.37F
PHILADELPHIA   SUNNY     70  28  21 SW13      30.37F
PITTSBURGH     MOSUNNY   72  35  25 W12G18    30.36F
ROANOKE        MOSUNNY   75  49  39 S10G22    30.38F
RICHMOND       MOSUNNY   75  40  28 CALM      30.39F
RALEIGH        MOSUNNY   77  44  30 CALM      30.38F

$$

ANZ530>537-232200-
MARINE OBSERVATIONS

STATION/POSITION TIME  TEMP    WIND        PRES
                       AIR SEA DIR/SP/G
                 (UTC) (F)     (DEG/KT/KT) (MB)
THOMAS PT LIGHT  2100   64 66  170/  6/  7 1030.0F
BALT KEY BRIDGE  2000   62     120/ 12/ 14 1029.0F
LEWISETTA        2000   65 69              1029.4F
SOLOMONS ISLAND  2000      69                N/A
PINEY POINT      2000          160/  8/  9   N/A

$$



USA.gov is the U.S. government's official web portal to all federal, state and local government web resources and services.